FENGYUN 1C DEB

Satellite information

Favourite Embed

Satellite Type and Status

DEBRISIN ORBIT

Key statistics

Satellite FENGYUN 1C DEB at a glance.

Uptime

9500

Days in orbit

Revolutions

≈ 13.9

Per day

Orbit

SSO

Sun Synchronous Orbit

Inclination

100.0

Latest

Satellite identification and parameters

Extended collection of information and parameters for FENGYUN 1C DEB.

Object identification

Identified? True

Debris? True

Object name: FENGYUN 1C DEB

International designator: 1999-025DZN

Object number (NORAD): 36692

Object ID (CCSDS): 36692

Country: PEOPLES REPUBLIC OF CHINA (PRC)

Current information (Y/N): Y

RCS size: SMALL

Orbital parameters

Period: 103.361 minutes

Inclination: 100.0118 deg

SMA: 7295.671 km

Apoapsis: 1000.482 km

Periapsis: 834.591 km

RAAN: 19.9324 deg

Eccentricy: 0.0113691

Argument of periapsis: 222.9681 deg

Mean anomaly: 136.2554 deg

Mean motion: 13.93172394 rev/day

Mean motion (dot): 0.00000341 rev/day2

B* drag term: 0.00028604 1/REarth

Two-line elements (TLE)

Creation date: May 11, 2025, 10:21 p.m.

Reference frame: TEME

Reference center: EARTH

Epoch: May 11, 2025, 3:37 a.m. UTC

TLE line 0: 0 FENGYUN 1C DEB

TLE line 1: 1 36692U 99025DZN 25131.15094944 .00000341 00000-0 28604-3 0 9990

TLE line 2: 2 36692 100.0118 19.9324 0113691 222.9681 136.2554 13.93172394568038

Live tracking on map

Real-time ground track for satellite FENGYUN 1C DEB.

In-orbit conjunctions

A list of the most updated potential collisions computed for object FENGYUN 1C DEB.

Target Orbit TCA Probability of collision Miss distance Type
CZ-6A DEB LEO 2024-11-03 11:21:21 0.0001034124 312.0 (m) DEBRIS
COSMOS 1791 LEO 2024-10-12 02:26:49 0.0001379169 828.0 (m) PAYLOAD

Associated space launch

Chinese polar orbiting meteorological satellite

FENGYUN 1C DEB was lifted into orbit during the mission ‘Long March 4B | Feng Yun 1C’, on board a Long March 4B space rocket.

The launch took place on May 10, 1999, 1:33 a.m. from Launch Complex 7.

For more information about the launch, click the button.

Launch to space Long March 4B | Feng Yun 1C
Long March 4B | Feng Yun 1C

Agency: N/A

Status: Launch Successful

Launch date: May 10, 1999, 1:33 a.m. UTC

Rocket: Long March 4B

Launch pad: Launch Complex 7

Location: Taiyuan Satellite Launch Center, People's Republic of China

...

Latest news about this satellite

There are no fresh news available about this satellite. Check back as we update our databases every day.


Newsletter sign-up

Weekly statistics, charts and insights to help you stay on top of the space industry.